EW1958 Weather Reports


time (UTC)temp
C
wind
direction
speed
KPH
gust
KPH
rain 1hr
cm
rain 24hr
cm
rain mn
cm
humidity
%
barometer
mb
20260503212131 27 273 0.0 3.2 0.00 0.00 0.00 45 1014.3
20260503211631 27 273 0.0 3.2 0.00 0.00 0.00 44 1014.3
20260503211129 27 273 0.0 3.2 0.00 0.00 0.00 44 1014.3
20260503210629 27 273 0.0 3.2 0.00 0.00 0.00 43 1014.3
20260503210340 27 273 0.0 3.2 0.00 0.00 0.00 45 1014.5
20260503205629 27 68 0.0 3.2 0.00 0.00 0.00 44 1014.6
20260503205406 26 68 0.0 3.2 0.00 0.00 0.00 45 1014.6
20260503205129 26 68 0.0 3.2 0.00 0.00 0.00 45 1014.6
20260503204844 26 68 0.0 3.2 0.00 0.00 0.00 45 1014.8
20260503204129 26 68 0.0 3.2 0.00 0.00 0.00 46 1014.9
20260503203908 26 68 1.6 3.2 0.00 0.00 0.00 44 1014.9
20260503203631 26 68 1.6 3.2 0.00 0.00 0.00 44 1014.9
20260503203129 27 70 0.0 3.2 0.00 0.00 0.00 44 1015.0
20260503202628 26 265 0.0 3.2 0.00 0.00 0.00 44 1014.9
20260503202127 26 265 0.0 3.2 0.00 0.00 0.00 43 1014.9
20260503201624 26 265 0.0 3.2 0.00 0.00 0.00 43 1015.0
20260503201121 26 273 0.0 3.2 0.00 0.00 0.00 46 1015.1
20260503200621 26 273 0.0 3.2 0.00 0.00 0.00 48 1015.1
20260503200121 26 273 0.0 3.2 0.00 0.00 0.00 48 1015.3
20260503195856 25 273 0.0 3.2 0.00 0.00 0.00 50 1015.5
20260503195620 25 273 0.0 3.2 0.00 0.00 0.00 50 1015.5
20260503195131 25 273 0.0 4.8 0.00 0.00 0.00 47 1015.6
20260503195120 25 273 0.0 4.8 0.00 0.00 0.00 49 1015.5
20260503194113 25 69 0.0 3.2 0.00 0.00 0.00 46 1015.6
20260503193613 25 76 0.0 3.2 0.00 0.00 0.00 47 1015.8
20260503193323 25 261 0.0 3.2 0.00 0.00 0.00 50 1015.8
20260503192854 25 261 0.0 3.2 0.00 0.00 0.00 46 1015.9
20260503192849 25 261 0.0 3.2 0.00 0.00 0.00 48 1015.8
20260503192612 25 261 0.0 3.2 0.00 0.00 0.00 48 1015.8
20260503192319 25 261 0.0 3.2 0.00 0.00 0.00 46 1015.9
20260503191603 25 261 0.0 3.2 0.00 0.00 0.00 48 1016.0
20260503191341 25 261 1.6 3.2 0.00 0.00 0.00 47 1016.0
20260503191100 25 261 1.6 3.2 0.00 0.00 0.00 47 1016.0
20260503190602 25 261 0.0 3.2 0.00 0.00 0.00 47 1015.9
20260503185601 25 348 0.0 3.2 0.00 0.00 0.00 51 1016.1
20260503185101 25 348 0.0 3.2 0.00 0.00 0.00 50 1016.1
20260503184815 25 348 0.0 3.2 0.00 0.00 0.00 51 1016.1
20260503184100 25 348 0.0 3.2 0.00 0.00 0.00 53 1016.2
20260503183601 24 340 0.0 3.2 0.00 0.00 0.00 50 1016.2
20260503183101 24 31 0.0 3.2 0.00 0.00 0.00 52 1016.2
20260503182600 24 70 0.0 3.2 0.00 0.00 0.00 50 1016.3
20260503182340 24 5 0.0 3.2 0.00 0.00 0.00 52 1016.3
20260503182101 24 5 0.0 3.2 0.00 0.00 0.00 52 1016.3
20260503181600 24 72 0.0 3.2 0.00 0.00 0.00 55 1016.3
20260503181102 24 65 0.0 3.2 0.00 0.00 0.00 50 1016.3
20260503180600 24 297 0.0 3.2 0.00 0.00 0.00 52 1016.3
20260503175619 23 297 0.0 3.2 0.00 0.00 0.00 54 1016.6
20260503175608 23 297 0.0 3.2 0.00 0.00 0.00 56 1016.4
20260503175312 23 297 0.0 3.2 0.00 0.00 0.00 54 1016.6
20260503174601 23 67 0.0 3.2 0.00 0.00 0.00 59 1016.7
20260503174101 22 74 0.0 3.2 0.00 0.00 0.00 57 1016.7
20260503173601 22 74 0.0 3.2 0.00 0.00 0.00 56 1016.8
20260503173101 22 57 0.0 3.2 0.00 0.00 0.00 60 1016.9
20260503172600 22 57 0.0 3.2 0.00 0.00 0.00 61 1017.0
20260503172059 22 57 0.0 3.2 0.00 0.00 0.00 61 1016.9
20260503171559 21 57 0.0 3.2 0.00 0.00 0.00 61 1017.0
20260503171059 21 284 0.0 3.2 0.00 0.00 0.00 62 1017.0
20260503170557 21 69 0.0 3.2 0.00 0.00 0.00 61 1017.0
20260503150744 11 177 0.0 3.2 0.00 0.00 0.00 94 1017.2
20260503140243 9 0.0 0.0 0.00 0.00 0.00 94 1017.0
20260503131157 9 0.0 0.0 0.00 0.00 0.00 93 1016.8
20260503130445 9 0.0 0.0 0.00 0.00 0.00 93 1016.9
20260503130216 9 0.0 0.0 0.00 0.00 0.00 93 1016.9
20260503120130 9 0.0 0.0 0.00 0.00 0.00 91 1017.0
20260503110803 10 0.0 0.0 0.00 0.00 0.00 90 1017.2
20260503110513 10 0.0 0.0 0.00 0.00 0.00 90 1017.3
20260503100258 10 177 0.0 0.0 0.00 0.00 0.00 89 1017.3
20260503090230 11 177 0.0 0.0 0.00 0.00 0.00 87 1017.4
20260503081218 11 177 0.0 0.0 0.00 0.00 0.00 85 1017.5
20260503080951 11 177 0.0 0.0 0.00 0.00 0.00 85 1017.5
20260503080716 11 177 0.0 0.0 0.00 0.00 0.00 85 1017.5
20260503080215 11 177 0.0 0.0 0.00 0.00 0.00 84 1017.5
20260503072704 12 177 0.0 0.0 0.00 0.00 0.00 83 1017.4
20260503072224 12 177 0.0 0.0 0.00 0.00 0.00 83 1017.3
20260503072213 12 177 0.0 0.0 0.00 0.00 0.00 83 1017.3
20260503071916 12 177 0.0 0.0 0.00 0.00 0.00 83 1017.3
20260503071201 12 177 0.0 0.0 0.00 0.00 0.00 83 1017.3
20260503070700 12 177 0.0 0.0 0.00 0.00 0.00 83 1017.4
20260503070202 12 177 0.0 0.0 0.00 0.00 0.00 83 1017.3
20260503054642 13 177 0.0 0.0 0.00 0.00 0.00 76 1017.2
20260503054142 13 177 0.0 0.0 0.00 0.00 0.00 75 1017.2
20260503053639 13 177 0.0 0.0 0.00 0.00 0.00 75 1017.2
20260503053138 14 177 0.0 0.0 0.00 0.00 0.00 75 1017.2
20260503052850 14 178 0.0 0.0 0.00 0.00 0.00 75 1017.2
20260503052138 14 177 0.0 0.0 0.00 0.00 0.00 75 1017.2
20260503051915 14 177 0.0 0.0 0.00 0.00 0.00 76 1017.2
20260503051637 14 177 0.0 0.0 0.00 0.00 0.00 76 1017.2
20260503051136 14 177 0.0 0.0 0.00 0.00 0.00 76 1017.3
20260503050911 15 177 0.0 0.0 0.00 0.00 0.00 76 1017.1
20260503050635 15 177 0.0 0.0 0.00 0.00 0.00 76 1017.1
20260503050135 15 177 0.0 0.0 0.00 0.00 0.00 75 1017.2
20260503045634 15 177 0.0 0.0 0.00 0.00 0.00 75 1017.2
20260503045346 15 177 0.0 0.0 0.00 0.00 0.00 73 1017.2
20260503044634 15 177 0.0 0.0 0.00 0.00 0.00 72 1017.1
20260503044131 15 177 0.0 0.0 0.00 0.00 0.00 72 1017.0
20260503043630 15 177 0.0 0.0 0.00 0.00 0.00 70 1017.1
20260503043407 16 177 0.0 0.0 0.00 0.00 0.00 71 1016.9
20260503043130 16 177 0.0 0.0 0.00 0.00 0.00 71 1016.9
20260503042637 16 177 0.0 0.0 0.00 0.00 0.00 71 1016.8
20260503042628 16 177 0.0 0.0 0.00 0.00 0.00 69 1016.9
20260503041626 16 177 0.0 0.0 0.00 0.00 0.00 70 1016.8
20260503041131 16 177 0.0 0.0 0.00 0.00 0.00 70 1016.7
20260503040624 16 177 0.0 0.0 0.00 0.00 0.00 70 1016.6
20260503040151 17 177 0.0 3.2 0.00 0.00 0.00 69 1016.6
20260503040140 16 177 0.0 3.2 0.00 0.00 0.00 71 1016.6
20260503035901 17 177 0.0 0.0 0.00 0.00 0.00 68 1016.4
20260503035627 17 177 0.0 3.2 0.00 0.00 0.00 69 1016.6
20260503034620 17 177 0.0 0.0 0.00 0.00 0.00 66 1016.3
20260503034118 17 177 0.0 0.0 0.00 0.00 0.00 66 1016.3
20260503033854 17 177 0.0 0.0 0.00 0.00 0.00 64 1016.1
20260503033616 17 177 0.0 0.0 0.00 0.00 0.00 64 1016.1
20260503033354 17 177 0.0 0.0 0.00 0.00 0.00 63 1016.0
20260503033116 17 177 0.0 0.0 0.00 0.00 0.00 63 1016.0
20260503032613 17 177 0.0 0.0 0.00 0.00 0.00 65 1016.0
20260503032112 18 177 0.0 0.0 0.00 0.00 0.00 66 1015.9
20260503031612 18 177 0.0 3.2 0.00 0.00 0.00 67 1016.0
20260503031320 18 177 0.0 3.2 0.00 0.00 0.00 66 1015.9
20260503030608 18 177 0.0 3.2 0.00 0.00 0.00 66 1015.8
20260503030105 18 177 0.0 3.2 0.00 0.00 0.00 67 1015.8
20260503025814 18 177 0.0 0.0 0.00 0.00 0.00 66 1015.8
20260503025103 18 177 0.0 1.6 0.00 0.00 0.00 63 1015.8
20260503024838 18 177 0.0 1.6 0.00 0.00 0.00 64 1015.8
20260503024602 18 177 0.0 1.6 0.00 0.00 0.00 64 1015.8
20260503024336 18 177 0.0 0.0 0.00 0.00 0.00 66 1015.8
20260503024101 18 177 0.0 0.0 0.00 0.00 0.00 66 1015.8
20260503023816 19 177 0.0 0.0 0.00 0.00 0.00 63 1015.7
20260503023337 19 177 0.0 3.2 0.00 0.00 0.00 63 1015.6
20260503023101 19 177 0.0 3.2 0.00 0.00 0.00 63 1015.6
20260503022600 19 177 0.0 3.2 0.00 0.00 0.00 63 1015.7
20260503022314 19 177 0.0 3.2 0.00 0.00 0.00 65 1015.7
20260503021558 19 177 0.0 3.2 0.00 0.00 0.00 64 1015.7
20260503021059 20 177 0.0 3.2 0.00 0.00 0.00 65 1015.6
20260503020831 20 177 0.0 3.2 0.00 0.00 0.00 64 1015.6
20260503020558 20 177 0.0 3.2 0.00 0.00 0.00 64 1015.6
20260503020055 20 177 0.0 3.2 0.00 0.00 0.00 63 1015.7
20260503015556 20 266 0.0 3.2 0.00 0.00 0.00 64 1015.7
20260503015052 20 266 0.0 3.2 0.00 0.00 0.00 63 1015.7
20260503014550 20 259 0.0 3.2 0.00 0.00 0.00 63 1015.7
20260503014047 20 259 0.0 3.2 0.00 0.00 0.00 64 1015.7
20260503013542 20 259 0.0 3.2 0.00 0.00 0.00 64 1015.6
20260503013248 20 259 0.0 3.2 0.00 0.00 0.00 63 1015.6
20260503012752 20 259 0.0 3.2 0.00 0.00 0.00 65 1015.7
20260503012038 20 259 0.0 3.2 0.00 0.00 0.00 63 1015.8
20260503011538 20 191 0.0 3.2 0.00 0.00 0.00 64 1015.7
20260503011037 20 191 0.0 3.2 0.00 0.00 0.00 62 1015.7
20260503010536 20 255 0.0 3.2 0.00 0.00 0.00 63 1015.7
20260503010035 20 255 0.0 3.2 0.00 0.00 0.00 64 1015.7
20260503005536 21 255 0.0 3.2 0.00 0.00 0.00 65 1015.7
20260503005247 21 255 0.0 3.2 0.00 0.00 0.00 64 1015.8
20260503004532 21 255 0.0 3.2 0.00 0.00 0.00 64 1015.8
20260503004034 21 255 0.0 3.2 0.00 0.00 0.00 64 1015.9
20260503003746 21 255 0.0 3.2 0.00 0.00 0.00 62 1015.9
20260503003031 21 281 0.0 3.2 0.00 0.00 0.00 66 1015.9
20260503002742 21 279 0.0 3.2 0.00 0.00 0.00 65 1016.0
20260503002029 21 278 0.0 3.2 0.00 0.00 0.00 65 1015.9
20260503001812 21 40 0.0 3.2 0.00 0.00 0.00 64 1015.8
20260503001528 21 40 0.0 3.2 0.00 0.00 0.00 64 1015.8
20260503001241 21 263 0.0 4.8 0.00 0.00 0.00 65 1015.8
20260503000529 21 263 0.0 4.8 0.00 0.00 0.00 64 1015.9
20260503000030 21 265 0.0 4.8 0.00 0.00 0.00 64 1016.0
20260502235806 21 76 0.0 3.2 0.00 0.00 0.00 62 1016.0
20260502235528 21 76 0.0 3.2 0.00 0.00 0.00 62 1016.0
20260502235312 21 76 0.0 3.2 0.00 0.00 0.00 62 1016.1
20260502235029 21 76 0.0 3.2 0.00 0.00 0.00 62 1016.1
20260502234800 21 76 0.0 3.2 0.00 0.00 0.00 63 1016.1
20260502234528 21 76 0.0 3.2 0.00 0.00 0.00 63 1016.1
20260502234029 21 68 0.0 3.2 0.00 0.00 0.00 62 1016.2
20260502233530 21 48 0.0 3.2 0.00 0.00 0.00 63 1016.2
20260502233306 21 48 0.0 3.2 0.00 0.00 0.00 62 1016.3
20260502233029 21 48 0.0 3.2 0.00 0.00 0.00 62 1016.3
20260502232536 21 48 0.0 3.2 0.00 0.00 0.00 60 1016.4
20260502232027 21 48 0.0 3.2 0.00 0.00 0.00 61 1016.4
20260502231524 21 281 0.0 3.2 0.00 0.00 0.00 61 1016.6
20260502231021 21 277 0.0 3.2 0.00 0.00 0.00 60 1016.7
20260502230522 21 259 1.6 3.2 0.00 0.00 0.00 60 1016.8
20260502230309 21 259 0.0 3.2 0.00 0.00 0.00 60 1016.9
20260502230032 21 259 0.0 3.2 0.00 0.00 0.00 60 1016.9
20260502225522 22 264 0.0 3.2 0.00 0.00 0.00 62 1017.0
20260502225021 22 264 0.0 3.2 0.00 0.00 0.00 59 1017.0
20260502224521 22 264 1.6 3.2 0.00 0.00 0.00 62 1017.1
20260502224022 22 264 1.6 3.2 0.00 0.00 0.00 61 1017.1
20260502223523 22 256 0.0 3.2 0.00 0.00 0.00 61 1017.2
20260502223256 22 253 0.0 3.2 0.00 0.00 0.00 61 1017.2
20260502223018 22 253 0.0 3.2 0.00 0.00 0.00 61 1017.2
20260502222517 22 84 1.6 3.2 0.00 0.00 0.00 60 1017.3
20260502222018 22 278 0.0 3.2 0.00 0.00 0.00 60 1017.3
20260502221517 22 60 0.0 3.2 0.00 0.00 0.00 61 1017.3
20260502221018 22 60 0.0 3.2 0.00 0.00 0.00 63 1017.4
20260502220531 22 317 1.6 4.8 0.00 0.00 0.00 62 1017.5
20260502220521 22 87 0.0 3.2 0.00 0.00 0.00 62 1017.4
20260502215518 22 271 1.6 4.8 0.00 0.00 0.00 62 1017.7
20260502215019 21 259 0.0 3.2 0.00 0.00 0.00 62 1017.6
20260502214727 21 259 0.0 3.2 0.00 0.00 0.00 62 1017.7
20260502214251 21 268 0.0 3.2 0.00 0.00 0.00 62 1017.9
20260502214014 21 268 0.0 3.2 0.00 0.00 0.00 62 1017.9
20260502213514 21 267 0.0 3.2 0.00 0.00 0.00 63 1017.8
20260502213251 21 267 0.0 3.2 0.00 0.00 0.00 63 1017.8
20260502213015 21 267 0.0 3.2 0.00 0.00 0.00 63 1017.8
20260502212511 21 279 1.6 3.2 0.00 0.00 0.00 63 1017.9